| time (UTC) | temp C | wind direction | speed KPH | gust KPH | rain 1hr cm | rain 24hr cm | rain mn cm | humidity % | barometer mb |
| 20260506084529 | 11 | 161 | 6.4 | 20.9 | 0.00 | 0.00 | 0.00 | 87 | 1015.9 |
| 20260506083027 | 11 | 219 | 6.4 | 19.3 | 0.00 | 0.00 | 0.00 | 86 | 1015.8 |
| 20260506081524 | 11 | 171 | 8.0 | 19.3 | 0.00 | 0.00 | 0.00 | 87 | 1015.8 |
| 20260506073019 | 12 | 165 | 6.4 | 22.5 | 0.00 | 0.00 | 0.00 | 86 | 1015.5 |
| 20260506071515 | 12 | 177 | 3.2 | 16.1 | 0.00 | 0.00 | 0.00 | 86 | 1015.4 |
| 20260506061511 | 12 | 188 | 8.0 | 16.1 | 0.00 | 0.00 | 0.00 | 84 | 1015.1 |
| 20260506044510 | 13 | 147 | 4.8 | 16.1 | 0.00 | 0.00 | 0.00 | 81 | 1014.7 |
| 20260506043008 | 13 | 188 | 6.4 | 16.1 | 0.00 | 0.00 | 0.00 | 82 | 1014.5 |
| 20260506041507 | 13 | 178 | 4.8 | 19.3 | 0.00 | 0.00 | 0.00 | 81 | 1014.4 |
| 20260506040007 | 13 | 181 | 4.8 | 17.7 | 0.00 | 0.00 | 0.00 | 81 | 1014.2 |
| 20260506034517 | 13 | 174 | 6.4 | 16.1 | 0.00 | 0.00 | 0.00 | 81 | 1014.0 |
| 20260506033006 | 13 | 166 | 4.8 | 19.3 | 0.00 | 0.00 | 0.00 | 80 | 1014.0 |
| 20260506031505 | 13 | 80 | 4.8 | 19.3 | 0.00 | 0.00 | 0.00 | 80 | 1013.8 |
| 20260506030017 | 13 | 174 | 6.4 | 16.1 | 0.00 | 0.00 | 0.00 | 81 | 1013.6 |
| 20260506024510 | 13 | 192 | 6.4 | 19.3 | 0.00 | 0.00 | 0.00 | 81 | 1013.6 |
| 20260506023010 | 13 | 227 | 4.8 | 17.7 | 0.00 | 0.00 | 0.00 | 82 | 1013.8 |
| 20260506021503 | 14 | 189 | 8.0 | 16.1 | 0.00 | 0.00 | 0.00 | 81 | 1013.9 |
| 20260506020001 | 14 | 167 | 4.8 | 17.7 | 0.00 | 0.00 | 0.00 | 82 | 1013.8 |
| 20260506014600 | 14 | 180 | 3.2 | 12.9 | 0.00 | 0.00 | 0.00 | 82 | 1013.8 |
| 20260506013110 | 14 | 161 | 6.4 | 16.1 | 0.00 | 0.00 | 0.00 | 81 | 1013.9 |
| 20260506011609 | 15 | 134 | 4.8 | 12.9 | 0.00 | 0.00 | 0.00 | 80 | 1013.8 |
| 20260506010058 | 15 | 232 | 3.2 | 12.9 | 0.00 | 0.00 | 0.00 | 78 | 1013.8 |
| 20260506004557 | 15 | 168 | 4.8 | 16.1 | 0.00 | 0.00 | 0.00 | 79 | 1013.9 |
| 20260506003058 | 15 | 241 | 6.4 | 16.1 | 0.00 | 0.00 | 0.00 | 79 | 1013.9 |
| 20260506001557 | 15 | 191 | 6.4 | 16.1 | 0.00 | 0.00 | 0.00 | 78 | 1014.0 |
| 20260506000053 | 15 | 184 | 6.4 | 14.5 | 0.00 | 0.00 | 0.00 | 79 | 1014.2 |
| 20260505234552 | 15 | 195 | 4.8 | 16.1 | 0.00 | 0.00 | 0.00 | 79 | 1014.2 |
| 20260505233051 | 15 | 194 | 6.4 | 19.3 | 0.00 | 0.00 | 0.00 | 79 | 1014.4 |
| 20260505231550 | 15 | 176 | 8.0 | 16.1 | 0.00 | 0.00 | 0.00 | 78 | 1014.5 |
| 20260505230101 | 15 | 158 | 8.0 | 19.3 | 0.00 | 0.00 | 0.00 | 78 | 1014.6 |
| 20260505224548 | 15 | 198 | 8.0 | 17.7 | 0.00 | 0.00 | 0.00 | 78 | 1014.8 |
| 20260505223056 | 16 | 197 | 6.4 | 20.9 | 0.00 | 0.00 | 0.00 | 76 | 1014.9 |
| 20260505221548 | 16 | 177 | 6.4 | 19.3 | 0.00 | 0.00 | 0.00 | 77 | 1014.9 |
| 20260505220046 | 16 | 214 | 9.7 | 27.4 | 0.00 | 0.00 | 0.00 | 77 | 1015.0 |
| 20260505214546 | 16 | 191 | 8.0 | 14.5 | 0.00 | 0.00 | 0.00 | 77 | 1015.1 |
| 20260505213054 | 15 | 134 | 4.8 | 16.1 | 0.00 | 0.00 | 0.00 | 78 | 1015.1 |
| 20260505211545 | 16 | 163 | 4.8 | 12.9 | 0.00 | 0.00 | 0.00 | 76 | 1015.2 |
| 20260505210043 | 16 | 184 | 6.4 | 16.1 | 0.00 | 0.00 | 0.00 | 77 | 1015.3 |
| 20260505204543 | 16 | 163 | 8.0 | 17.7 | 0.00 | 0.00 | 0.00 | 77 | 1015.4 |
| 20260505203047 | 16 | 333 | 4.8 | 14.5 | 0.00 | 0.00 | 0.00 | 77 | 1015.4 |
| 20260505201542 | 15 | 170 | 6.4 | 19.3 | 0.00 | 0.00 | 0.00 | 77 | 1015.4 |
| 20260505200041 | 16 | 206 | 4.8 | 16.1 | 0.00 | 0.00 | 0.00 | 78 | 1015.3 |
| 20260505194543 | 15 | 184 | 6.4 | 16.1 | 0.00 | 0.00 | 0.00 | 78 | 1015.4 |
| 20260505193039 | 15 | 181 | 6.4 | 16.1 | 0.00 | 0.00 | 0.00 | 79 | 1015.3 |
| 20260505191538 | 15 | 199 | 4.8 | 16.1 | 0.00 | 0.00 | 0.00 | 79 | 1015.4 |
| 20260505190038 | 15 | 191 | 4.8 | 12.9 | 0.00 | 0.00 | 0.00 | 80 | 1015.3 |
| 20260505184534 | 14 | 146 | 3.2 | 11.3 | 0.00 | 0.00 | 0.00 | 82 | 1015.3 |
| 20260505183032 | 14 | 153 | 4.8 | 11.3 | 0.00 | 0.00 | 0.00 | 82 | 1015.4 |
| 20260505181531 | 14 | 141 | 3.2 | 9.7 | 0.00 | 0.00 | 0.00 | 83 | 1015.3 |
| 20260505180029 | 13 | 193 | 4.8 | 14.5 | 0.00 | 0.00 | 0.00 | 84 | 1015.2 |
| 20260505174529 | 13 | 176 | 3.2 | 12.9 | 0.00 | 0.00 | 0.00 | 85 | 1015.2 |
| 20260505173039 | 13 | 167 | 3.2 | 12.9 | 0.00 | 0.00 | 0.00 | 86 | 1015.2 |
| 20260505171526 | 13 | 98 | 3.2 | 12.9 | 0.00 | 0.00 | 0.00 | 86 | 1015.3 |
| 20260505170026 | 13 | 214 | 3.2 | 9.7 | 0.00 | 0.00 | 0.00 | 86 | 1015.3 |
| 20260505164543 | 12 | 177 | 4.8 | 12.9 | 0.00 | 0.00 | 0.00 | 87 | 1015.2 |
| 20260505163018 | 12 | 182 | 4.8 | 14.5 | 0.00 | 0.00 | 0.00 | 87 | 1015.1 |
| 20260505161515 | 12 | 197 | 3.2 | 12.9 | 0.00 | 0.00 | 0.00 | 88 | 1015.3 |
| 20260505153011 | 12 | 187 | 6.4 | 22.5 | 0.00 | 0.00 | 0.00 | 87 | 1015.1 |
| 20260505151508 | 12 | 157 | 6.4 | 25.7 | 0.00 | 0.00 | 0.00 | 88 | 1014.9 |
| 20260505140106 | 11 | 163 | 4.8 | 11.3 | 0.00 | 0.00 | 0.00 | 88 | 1014.0 |
| 20260505124543 | 12 | 186 | 6.4 | 12.9 | 0.00 | 0.00 | 0.00 | 87 | 1013.2 |
| 20260505123040 | 12 | 182 | 6.4 | 16.1 | 0.00 | 0.00 | 0.00 | 87 | 1013.0 |
| 20260505121538 | 12 | 154 | 6.4 | 14.5 | 0.00 | 0.00 | 0.00 | 87 | 1012.9 |
| 20260505120038 | 12 | 186 | 8.0 | 22.5 | 0.00 | 0.00 | 0.00 | 86 | 1012.8 |
| 20260505114538 | 12 | 180 | 6.4 | 17.7 | 0.00 | 0.00 | 0.00 | 86 | 1012.7 |
| 20260505113031 | 12 | 194 | 6.4 | 16.1 | 0.00 | 0.00 | 0.00 | 86 | 1012.5 |
| 20260505111534 | 12 | 190 | 6.4 | 17.7 | 0.00 | 0.00 | 0.00 | 86 | 1012.3 |
| 20260505101520 | 12 | 170 | 8.0 | 19.3 | 0.00 | 0.00 | 0.00 | 83 | 1011.8 |
| 20260505100018 | 12 | 179 | 8.0 | 20.9 | 0.00 | 0.00 | 0.00 | 83 | 1011.7 |
| 20260505094515 | 12 | 178 | 9.7 | 22.5 | 0.00 | 0.00 | 0.00 | 81 | 1011.7 |
| 20260505093013 | 13 | 213 | 6.4 | 20.9 | 0.00 | 0.00 | 0.00 | 79 | 1011.7 |
| 20260505091510 | 13 | 200 | 4.8 | 20.9 | 0.00 | 0.00 | 0.00 | 77 | 1011.4 |
| 20260505090009 | 14 | 190 | 6.4 | 19.3 | 0.00 | 0.00 | 0.00 | 73 | 1011.2 |